Time,TemperatureF,DewpointF,PressureIn,WindDirection,WindDirectionDegrees,WindSpeedMPH,WindSpeedGustMPH,Humidity,HourlyPrecipIn,Conditions,Clouds,dailyrainin,SoftwareType,DateUTC
2013-09-02 00:13:00,72.4,71.0,29.75,SW,215,4.0,6.0,95,0.00,,,0.00,weatherlink.com 1.10,2013-09-02 04:13:00,
2013-09-02 00:28:00,72.4,71.0,29.75,SSW,203,5.0,7.0,95,0.00,,,0.00,weatherlink.com 1.10,2013-09-02 04:28:00,
2013-09-02 00:43:00,72.3,71.0,29.75,SSW,211,4.0,8.0,95,0.00,,,0.00,weatherlink.com 1.10,2013-09-02 04:43:00,
2013-09-02 00:58:00,72.2,71.0,29.75,SSW,204,4.0,7.0,95,0.00,,,0.00,weatherlink.com 1.10,2013-09-02 04:58:00,
2013-09-02 01:13:00,72.0,71.0,29.75,SW,234,1.0,5.0,95,0.00,,,0.00,weatherlink.com 1.10,2013-09-02 05:13:00,
2013-09-02 01:28:00,71.9,71.0,29.76,SW,235,0.0,3.0,95,0.00,,,0.00,weatherlink.com 1.10,2013-09-02 05:28:00,
2013-09-02 01:43:00,71.7,70.0,29.75,SSW,202,2.0,3.0,95,0.00,,,0.00,weatherlink.com 1.10,2013-09-02 05:43:00,
2013-09-02 01:58:00,71.3,70.0,29.75,SSW,201,1.0,5.0,95,0.00,,,0.00,weatherlink.com 1.10,2013-09-02 05:58:00,
2013-09-02 02:13:00,71.2,70.0,29.75,SSW,201,0.0,2.0,95,0.00,,,0.00,weatherlink.com 1.10,2013-09-02 06:13:00,
2013-09-02 02:28:00,71.1,70.0,29.75,SSW,201,0.0,2.0,96,0.00,,,0.00,weatherlink.com 1.10,2013-09-02 06:28:00,
2013-09-02 02:43:00,71.1,70.0,29.74,SSW,201,0.0,3.0,96,0.00,,,0.00,weatherlink.com 1.10,2013-09-02 06:43:00,
2013-09-02 02:58:00,71.2,70.0,29.74,SSW,201,2.0,4.0,96,0.00,,,0.00,weatherlink.com 1.10,2013-09-02 06:58:00,
2013-09-02 03:13:00,71.3,70.0,29.73,SSW,200,4.0,4.0,96,0.00,,,0.00,weatherlink.com 1.10,2013-09-02 07:13:00,
2013-09-02 03:28:00,71.5,70.0,29.72,SSW,197,2.0,4.0,96,0.00,,,0.00,weatherlink.com 1.10,2013-09-02 07:28:00,
2013-09-02 03:43:00,71.5,70.0,29.72,SSW,197,1.0,3.0,96,0.00,,,0.00,weatherlink.com 1.10,2013-09-02 07:43:00,
2013-09-02 03:58:00,71.6,70.0,29.72,SSW,196,0.0,3.0,96,0.00,,,0.00,weatherlink.com 1.10,2013-09-02 07:58:00,
2013-09-02 04:14:00,71.7,71.0,29.72,SSW,200,6.0,6.0,96,0.00,,,0.00,weatherlink.com 1.10,2013-09-02 08:14:00,
2013-09-02 04:29:00,71.8,71.0,29.72,South,189,2.0,6.0,96,0.00,,,0.00,weatherlink.com 1.10,2013-09-02 08:29:00,
2013-09-02 04:44:00,72.0,71.0,29.72,South,183,1.0,5.0,96,0.00,,,0.00,weatherlink.com 1.10,2013-09-02 08:44:00,
2013-09-02 04:59:00,72.0,71.0,29.72,SSW,205,3.0,4.0,96,0.00,,,0.00,weatherlink.com 1.10,2013-09-02 08:59:00,
2013-09-02 05:14:00,72.0,71.0,29.72,SSW,212,0.0,5.0,96,0.00,,,0.00,weatherlink.com 1.10,2013-09-02 09:14:00,
2013-09-02 05:29:00,71.8,71.0,29.72,SSW,212,0.0,0.0,96,0.00,,,0.00,weatherlink.com 1.10,2013-09-02 09:29:00,
2013-09-02 05:44:00,71.8,71.0,29.72,SSW,212,0.0,2.0,96,0.00,,,0.00,weatherlink.com 1.10,2013-09-02 09:44:00,
2013-09-02 05:59:00,71.7,71.0,29.73,SSW,213,0.0,3.0,96,0.00,,,0.00,weatherlink.com 1.10,2013-09-02 09:59:00,
2013-09-02 06:14:00,71.7,71.0,29.73,SSW,213,1.0,2.0,96,0.00,,,0.00,weatherlink.com 1.10,2013-09-02 10:14:00,
2013-09-02 06:29:00,71.7,71.0,29.73,SSW,213,0.0,0.0,96,0.00,,,0.00,weatherlink.com 1.10,2013-09-02 10:29:00,
2013-09-02 06:44:00,71.7,71.0,29.73,SSW,213,0.0,1.0,96,0.00,,,0.00,weatherlink.com 1.10,2013-09-02 10:44:00,
2013-09-02 06:59:00,71.7,71.0,29.73,SSW,213,0.0,0.0,96,0.00,,,0.00,weatherlink.com 1.10,2013-09-02 10:59:00,
2013-09-02 07:14:00,71.9,71.0,29.72,SSW,213,0.0,3.0,96,0.00,,,0.00,weatherlink.com 1.10,2013-09-02 11:14:00,
2013-09-02 07:29:00,72.2,71.0,29.73,SSW,213,2.0,2.0,96,0.00,,,0.00,weatherlink.com 1.10,2013-09-02 11:29:00,
2013-09-02 07:44:00,72.4,72.0,29.73,SSW,213,2.0,4.0,97,0.00,,,0.00,weatherlink.com 1.10,2013-09-02 11:44:00,
2013-09-02 07:59:00,72.6,71.0,29.73,SW,217,3.0,6.0,96,0.00,,,0.00,weatherlink.com 1.10,2013-09-02 11:59:00,
2013-09-02 08:14:00,72.8,72.0,29.73,SW,218,2.0,6.0,96,0.01,,,0.01,weatherlink.com 1.10,2013-09-02 12:14:00,
2013-09-02 08:29:00,72.9,72.0,29.73,WSW,245,2.0,4.0,96,0.01,,,0.01,weatherlink.com 1.10,2013-09-02 12:29:00,
2013-09-02 08:44:00,72.8,72.0,29.73,WNW,285,1.0,5.0,96,0.01,,,0.01,weatherlink.com 1.10,2013-09-02 12:44:00,
2013-09-02 08:59:00,72.7,72.0,29.73,WNW,285,0.0,3.0,96,0.01,,,0.01,weatherlink.com 1.10,2013-09-02 12:59:00,
2013-09-02 09:14:00,72.7,72.0,29.73,WNW,285,2.0,4.0,97,0.01,,,0.02,weatherlink.com 1.10,2013-09-02 13:14:00,
2013-09-02 09:29:00,72.6,72.0,29.72,SW,223,4.0,6.0,97,0.01,,,0.02,weatherlink.com 1.10,2013-09-02 13:29:00,
2013-09-02 09:44:00,72.6,72.0,29.74,WSW,250,4.0,7.0,97,0.01,,,0.02,weatherlink.com 1.10,2013-09-02 13:44:00,
2013-09-02 09:59:00,72.0,71.0,29.74,SSW,202,5.0,6.0,96,0.02,,,0.03,weatherlink.com 1.10,2013-09-02 13:59:00,
2013-09-02 10:14:00,70.3,69.0,29.74,SSE,168,2.0,5.0,95,0.02,,,0.04,weatherlink.com 1.10,2013-09-02 14:14:00,
2013-09-02 10:29:00,69.4,68.0,29.74,SSE,150,0.0,4.0,95,0.02,,,0.04,weatherlink.com 1.10,2013-09-02 14:29:00,
2013-09-02 10:44:00,69.8,69.0,29.73,ESE,109,0.0,5.0,96,0.03,,,0.05,weatherlink.com 1.10,2013-09-02 14:44:00,
2013-09-02 10:59:00,71.0,70.0,29.73,SE,134,0.0,3.0,96,0.02,,,0.05,weatherlink.com 1.10,2013-09-02 14:59:00,
2013-09-02 11:14:00,71.9,71.0,29.74,SSW,206,0.0,3.0,96,0.01,,,0.05,weatherlink.com 1.10,2013-09-02 15:14:00,
2013-09-02 11:29:00,73.3,72.0,29.74,NW,311,2.0,3.0,96,0.01,,,0.05,weatherlink.com 1.10,2013-09-02 15:29:00,
2013-09-02 11:44:00,74.7,72.0,29.73,SW,220,3.0,5.0,92,0.00,,,0.05,weatherlink.com 1.10,2013-09-02 15:44:00,
2013-09-02 11:59:00,75.3,71.0,29.73,West,273,3.0,5.0,87,0.00,,,0.05,weatherlink.com 1.10,2013-09-02 15:59:00,
2013-09-02 12:14:00,75.8,72.0,29.72,WSW,254,3.0,4.0,89,0.00,,,0.05,weatherlink.com 1.10,2013-09-02 16:14:00,
2013-09-02 12:29:00,76.2,71.0,29.72,SSW,205,1.0,7.0,85,0.00,,,0.05,weatherlink.com 1.10,2013-09-02 16:29:00,
2013-09-02 12:44:00,78.3,73.0,29.71,SW,225,5.0,9.0,84,0.00,,,0.05,weatherlink.com 1.10,2013-09-02 16:44:00,
2013-09-02 12:59:00,78.1,72.0,29.70,SW,223,2.0,7.0,80,0.00,,,0.05,weatherlink.com 1.10,2013-09-02 16:59:00,
2013-09-02 13:15:00,77.7,71.0,29.70,WSW,250,3.0,6.0,79,0.00,,,0.05,weatherlink.com 1.10,2013-09-02 17:15:00,
2013-09-02 13:30:00,78.3,71.0,29.69,SW,220,5.0,7.0,79,0.00,,,0.05,weatherlink.com 1.10,2013-09-02 17:30:00,
2013-09-02 13:45:00,79.3,73.0,29.70,SSW,209,4.0,7.0,81,0.00,,,0.05,weatherlink.com 1.10,2013-09-02 17:45:00,
2013-09-02 14:00:00,79.6,72.0,29.70,West,261,3.0,9.0,78,0.00,,,0.05,weatherlink.com 1.10,2013-09-02 18:00:00,
2013-09-02 14:15:00,80.0,73.0,29.70,West,259,6.0,8.0,78,0.00,,,0.05,weatherlink.com 1.10,2013-09-02 18:15:00,
2013-09-02 14:30:00,80.6,74.0,29.68,SW,229,4.0,7.0,79,0.01,,,0.06,weatherlink.com 1.10,2013-09-02 18:30:00,
2013-09-02 14:45:00,80.7,73.0,29.68,West,268,3.0,6.0,78,0.01,,,0.06,weatherlink.com 1.10,2013-09-02 18:45:00,
2013-09-02 15:00:00,81.1,74.0,29.68,SW,221,3.0,6.0,78,0.01,,,0.06,weatherlink.com 1.10,2013-09-02 19:00:00,
2013-09-02 15:15:00,81.0,74.0,29.68,SW,225,5.0,7.0,78,0.01,,,0.06,weatherlink.com 1.10,2013-09-02 19:15:00,
2013-09-02 15:30:00,80.7,74.0,29.68,SSW,202,6.0,7.0,79,0.00,,,0.06,weatherlink.com 1.10,2013-09-02 19:30:00,
2013-09-02 15:45:00,80.2,73.0,29.67,SW,224,4.0,7.0,78,0.00,,,0.06,weatherlink.com 1.10,2013-09-02 19:45:00,
2013-09-02 16:00:00,79.3,73.0,29.67,SW,220,2.0,7.0,80,0.00,,,0.06,weatherlink.com 1.10,2013-09-02 20:00:00,
2013-09-02 16:15:00,78.7,73.0,29.67,SW,221,1.0,5.0,83,0.00,,,0.06,weatherlink.com 1.10,2013-09-02 20:15:00,
2013-09-02 16:30:00,77.3,73.0,29.66,SSW,208,1.0,2.0,87,0.00,,,0.06,weatherlink.com 1.10,2013-09-02 20:30:00,
2013-09-02 16:45:00,76.4,73.0,29.67,SSE,167,0.0,2.0,89,0.00,,,0.06,weatherlink.com 1.10,2013-09-02 20:45:00,
2013-09-02 17:00:00,75.6,73.0,29.67,NE,37,2.0,4.0,91,0.00,,,0.06,weatherlink.com 1.10,2013-09-02 21:00:00,
2013-09-02 17:15:00,74.6,73.0,29.66,NE,55,0.0,2.0,93,0.00,,,0.06,weatherlink.com 1.10,2013-09-02 21:15:00,
2013-09-02 17:30:00,74.0,72.0,29.67,NNE,19,3.0,4.0,94,0.00,,,0.06,weatherlink.com 1.10,2013-09-02 21:30:00,
2013-09-02 17:45:00,70.8,68.0,29.71,NNE,19,5.0,11.0,92,0.01,,,0.07,weatherlink.com 1.10,2013-09-02 21:45:00,
2013-09-02 18:00:00,67.9,65.0,29.70,South,190,8.0,14.0,90,0.01,,,0.07,weatherlink.com 1.10,2013-09-02 22:00:00,
2013-09-02 18:15:00,65.9,64.0,29.67,SE,128,1.0,7.0,93,0.01,,,0.07,weatherlink.com 1.10,2013-09-02 22:15:00,
2013-09-02 18:30:00,65.4,64.0,29.66,ESE,117,4.0,10.0,94,0.03,,,0.09,weatherlink.com 1.10,2013-09-02 22:30:00,
2013-09-02 18:45:00,65.9,65.0,29.65,NNW,327,0.0,3.0,95,0.04,,,0.11,weatherlink.com 1.10,2013-09-02 22:45:00,
2013-09-02 19:00:00,66.4,65.0,29.64,NNW,327,0.0,2.0,96,0.07,,,0.14,weatherlink.com 1.10,2013-09-02 23:00:00,
2013-09-02 19:15:00,66.1,65.0,29.64,SW,225,3.0,8.0,95,0.10,,,0.17,weatherlink.com 1.10,2013-09-02 23:15:00,
2013-09-02 19:30:00,65.6,64.0,29.64,WSW,251,3.0,4.0,95,0.10,,,0.19,weatherlink.com 1.10,2013-09-02 23:30:00,
2013-09-02 19:45:00,65.3,64.0,29.64,SSW,208,1.0,5.0,95,0.11,,,0.22,weatherlink.com 1.10,2013-09-02 23:45:00,
2013-09-02 20:00:00,65.1,64.0,29.65,SSW,208,0.0,4.0,96,0.11,,,0.25,weatherlink.com 1.10,2013-09-03 00:00:00,
2013-09-02 20:15:00,64.8,64.0,29.65,SSW,208,2.0,2.0,96,0.10,,,0.27,weatherlink.com 1.10,2013-09-03 00:15:00,
2013-09-02 20:30:00,64.4,63.0,29.66,SSE,153,4.0,4.0,96,0.11,,,0.30,weatherlink.com 1.10,2013-09-03 00:30:00,
2013-09-02 20:45:00,64.2,63.0,29.65,ESE,119,2.0,4.0,97,0.11,,,0.33,weatherlink.com 1.10,2013-09-03 00:45:00,
2013-09-02 21:00:00,64.0,63.0,29.66,ESE,119,3.0,4.0,97,0.10,,,0.35,weatherlink.com 1.10,2013-09-03 01:00:00,
2013-09-02 21:15:00,64.0,63.0,29.67,ESE,119,2.0,3.0,97,0.10,,,0.37,weatherlink.com 1.10,2013-09-03 01:15:00,
2013-09-02 21:30:00,64.2,63.0,29.68,ESE,119,4.0,4.0,97,0.09,,,0.39,weatherlink.com 1.10,2013-09-03 01:30:00,
2013-09-02 21:45:00,64.4,64.0,29.69,ESE,119,3.0,4.0,97,0.08,,,0.41,weatherlink.com 1.10,2013-09-03 01:45:00,
2013-09-02 22:00:00,64.8,64.0,29.70,East,84,1.0,4.0,98,0.08,,,0.43,weatherlink.com 1.10,2013-09-03 02:00:00,
2013-09-02 22:15:00,64.7,64.0,29.70,East,96,3.0,7.0,98,0.08,,,0.45,weatherlink.com 1.10,2013-09-03 02:15:00,
2013-09-02 22:30:00,64.5,64.0,29.71,ESE,105,1.0,5.0,98,0.08,,,0.47,weatherlink.com 1.10,2013-09-03 02:30:00,
2013-09-02 22:45:00,65.0,65.0,29.70,East,96,6.0,7.0,98,0.08,,,0.49,weatherlink.com 1.10,2013-09-03 02:45:00,
2013-09-02 23:00:00,65.5,65.0,29.71,ESE,118,0.0,7.0,98,0.08,,,0.51,weatherlink.com 1.10,2013-09-03 03:00:00,
2013-09-02 23:15:00,65.8,65.0,29.72,ENE,72,2.0,8.0,98,0.07,,,0.52,weatherlink.com 1.10,2013-09-03 03:15:00,
2013-09-02 23:30:00,65.6,65.0,29.73,NNE,19,0.0,5.0,98,0.07,,,0.54,weatherlink.com 1.10,2013-09-03 03:30:00,
2013-09-02 23:45:00,65.6,65.0,29.74,East,80,2.0,4.0,98,0.07,,,0.56,weatherlink.com 1.10,2013-09-03 03:45:00,